Simultaneous Nadir Overpasses (SNOs) Predictions

Prediction of SNOs between GOES-17 and NOAA-19 Satellite Orbit:

Table of predicted SNOs for the next 14.0 days since TLE Epoch: 8/7/2020
Index Date Time (GOES-17) GOES-17 Lat,Lon NOAA-19 Lat,Lon Distance(km) Time Diff (sec)
1 08/08/2020 14:56:42 -0.00,-137.17 -0.77,-133.89 374.89 80
2 08/11/2020 03:17:40 0.00,-137.15 -0.37,-138.84 192.52 80
3 08/12/2020 03:08:38 -0.00,-137.14 0.25,-135.98 132.97 80
4 08/13/2020 02:56:56 -0.00,-137.14 0.92,-133.12 458.15 80
5 08/14/2020 15:26:57 0.00,-137.13 0.87,-140.94 435.42 80
6 08/15/2020 15:15:16 0.00,-137.11 0.20,-138.09 110.84 80
7 08/16/2020 15:06:13 0.00,-137.10 -0.41,-135.22 213.66 80
8 08/19/2020 03:24:30 -0.01,-137.04 -0.75,-140.17 357.72 80
9 08/20/2020 03:12:49 -0.01,-137.02 -0.08,-137.32 33.75 80
10 08/21/2020 03:03:47 -0.01,-137.00 0.59,-134.46 290.11 80
